Flag for U.S.A. Weather past 2 weeks in Lynchburg, Virginia, U.S.A.

Now
41 °F

Fog.


Feels Like: 36 °F
Forecast: 43 / 48 °F
Wind: 7 mph from Northeast

Location: Lynchburg Regional Airport

Current Time: Apr 25, 2015 at 6:35:01 PM

Latest Report: Apr 25, 2015 at 4:54 PM


Visibility: 2 mi

Pressure: 29.79 "Hg

Humidity: 96%

Dew point: 40 °F

Location of LynchburgLocation

Historic Weather in Lynchburg — Graph

°F

Lynchburg temperature yesterday

Maximum temperature yesterday: 64 °F (at 3:54 PM)
Minimum temperature yesterday: 34 °F (at 6:54 AM)
Average temperature yesterday: 51 °F

Past Weeks' High & Low Weather Summary

 TemperatureHumidityPressure
High79 °F (Apr 18, 3:54 PM)100% (Apr 14, 12:54 PM)30.40 "Hg (Apr 14, 12:54 PM)
Low34 °F (Apr 24, 6:54 AM)14% (Apr 24, 2:54 PM)29.53 "Hg (Apr 20, 4:54 PM)
Average59 °F62%30.02 "Hg
* Reported Apr 10 4:54 PM — Apr 25 4:03 PM, Lynchburg, Weather by CustomWeather, © 2015

Note: Actual official high and low records may vary slightly from our data, if they occured in-between our weather recording intervals... More about our weather records

Advertising

Lynchburg weather history for previous 24 hours

 ConditionsComfort  
Time TempWeatherWind HumidityBarometerVisibility
4:03 PM
Sat, Apr 25
42 °FLight rain. Fog.7 mph96%29.80 "Hg2 mi
3:54 PM42 °FLight rain. Fog.7 mph96%29.81 "Hg3 mi
2:54 PM42 °FLight rain. Fog.7 mph96%29.83 "Hg5 mi
1:54 PM44 °FLight rain. More clouds than sun.8 mph82%29.88 "Hg8 mi
12:54 PM45 °FLight rain. Overcast.6 mph76%29.92 "Hg10 mi
11:54 AM46 °FOvercast.12 mph63%29.93 "Hg10 mi
10:54 AM47 °FLight rain. Overcast.9 mph71%29.93 "Hg10 mi
9:54 AM47 °FMostly cloudy.6 mph66%29.96 "Hg10 mi
8:54 AM44 °FLight rain. Fog.No wind93%29.97 "Hg5 mi
7:54 AM48 °FLight rain. Overcast.5 mph56%29.96 "Hg10 mi
6:54 AM48 °FOvercast.No wind54%29.95 "Hg10 mi
5:54 AM49 °FOvercast.3 mph43%29.94 "Hg10 mi
4:54 AM49 °FOvercast.5 mph46%29.92 "Hg10 mi
3:54 AM50 °FPassing clouds.5 mph44%29.92 "Hg10 mi
2:54 AM48 °FOvercast.No wind54%29.93 "Hg10 mi
1:54 AM44 °FOvercast.No wind71%29.95 "Hg10 mi
12:54 AM44 °FClear.No wind53%29.95 "Hg10 mi
11:54 PM
Fri, Apr 24
46 °FClear.No wind54%29.96 "Hg10 mi
10:54 PM50 °FClear.No wind32%29.96 "Hg10 mi
9:54 PM50 °FClear.3 mph38%29.98 "Hg10 mi
8:54 PM51 °FSunny.No wind32%29.96 "Hg10 mi
7:54 PM55 °FSunny.No wind31%29.95 "Hg10 mi
6:54 PM62 °FSunny.6 mph16%29.93 "Hg10 mi
Weather by CustomWeather, © 2015

See weather overviewHow to use our weather pages